Time,TemperatureF,DewpointF,PressureIn,WindDirection,WindDirectionDegrees,WindSpeedMPH,WindSpeedGustMPH,Humidity,HourlyPrecipIn,Conditions,Clouds,dailyrainin,SoftwareType,DateUTC
2013-03-03 00:05:00,50.3,42.7,30.10,SW,215,1.0,2.0,75,0.00,,,0.00,Wunderground v.1.15,2013-03-03 08:05:00,
2013-03-03 00:10:00,50.6,42.3,30.09,SW,215,1.0,1.0,73,0.00,,,0.00,Wunderground v.1.15,2013-03-03 08:10:00,
2013-03-03 00:15:00,51.1,42.7,30.09,SW,215,0.0,2.0,73,0.00,,,0.00,Wunderground v.1.15,2013-03-03 08:15:00,
2013-03-03 00:25:00,52.0,41.8,30.09,SW,215,1.0,2.0,68,0.00,,,0.00,Wunderground v.1.15,2013-03-03 08:25:00,
2013-03-03 00:30:00,52.4,42.1,30.09,SW,215,0.0,2.0,68,0.00,,,0.00,Wunderground v.1.15,2013-03-03 08:30:00,
2013-03-03 00:35:00,52.6,42.7,30.09,SW,215,0.0,2.0,69,0.00,,,0.00,Wunderground v.1.15,2013-03-03 08:35:00,
2013-03-03 00:40:00,52.8,42.5,30.10,SW,215,1.0,3.0,68,0.00,,,0.00,Wunderground v.1.15,2013-03-03 08:40:00,
2013-03-03 00:45:00,53.5,41.2,30.10,SSW,213,2.0,3.0,63,0.00,,,0.00,Wunderground v.1.15,2013-03-03 08:45:00,
2013-03-03 00:50:00,54.1,41.4,30.10,SW,216,3.0,3.0,62,0.00,,,0.00,Wunderground v.1.15,2013-03-03 08:50:00,
2013-03-03 00:55:00,54.5,41.3,30.10,SW,215,2.0,3.0,61,0.00,,,0.00,Wunderground v.1.15,2013-03-03 08:55:00,
2013-03-03 01:00:00,55.0,41.4,30.11,North,2,1.0,3.0,60,0.00,,,0.00,Wunderground v.1.15,2013-03-03 09:00:00,
2013-03-03 01:05:00,55.6,41.9,30.09,NNE,19,3.0,7.0,60,0.00,,,0.00,Wunderground v.1.15,2013-03-03 09:05:00,
2013-03-03 01:10:00,56.1,42.0,30.09,NE,47,4.0,7.0,59,0.00,,,0.00,Wunderground v.1.15,2013-03-03 09:10:00,
2013-03-03 01:20:00,56.9,42.3,30.08,SSW,193,3.0,3.0,58,0.00,,,0.00,Wunderground v.1.15,2013-03-03 09:20:00,
2013-03-03 01:25:00,56.6,43.7,30.09,South,191,3.0,3.0,62,0.00,,,0.00,Wunderground v.1.15,2013-03-03 09:25:00,
2013-03-03 01:30:00,56.2,44.6,30.08,SW,224,3.0,3.0,65,0.00,,,0.00,Wunderground v.1.15,2013-03-03 09:30:00,
2013-03-03 01:35:00,55.7,44.9,30.08,SW,234,1.0,3.0,67,0.00,,,0.00,Wunderground v.1.15,2013-03-03 09:35:00,
2013-03-03 01:40:00,55.3,44.9,30.09,SW,234,1.0,2.0,68,0.00,,,0.00,Wunderground v.1.15,2013-03-03 09:40:00,
2013-03-03 01:45:00,54.8,44.0,30.08,SW,234,1.0,2.0,67,0.00,,,0.00,Wunderground v.1.15,2013-03-03 09:45:00,
2013-03-03 01:50:00,54.5,44.5,30.07,SW,234,1.0,2.0,69,0.00,,,0.00,Wunderground v.1.15,2013-03-03 09:50:00,
2013-03-03 01:55:00,54.2,44.6,30.07,SW,235,2.0,2.0,70,0.00,,,0.00,Wunderground v.1.15,2013-03-03 09:55:00,
2013-03-03 02:05:00,53.7,44.5,30.06,SW,235,0.0,2.0,71,0.00,,,0.00,Wunderground v.1.15,2013-03-03 10:05:00,
2013-03-03 02:10:00,53.5,44.3,30.06,SW,235,0.0,2.0,71,0.00,,,0.00,Wunderground v.1.15,2013-03-03 10:10:00,
2013-03-03 02:15:00,53.3,44.1,30.05,SW,235,1.0,2.0,71,0.00,,,0.00,Wunderground v.1.15,2013-03-03 10:15:00,
2013-03-03 02:20:00,53.2,42.5,30.04,WSW,250,2.0,4.0,67,0.00,,,0.00,Wunderground v.1.15,2013-03-03 10:20:00,
2013-03-03 02:25:00,53.6,40.5,30.04,West,266,2.0,4.0,61,0.00,,,0.00,Wunderground v.1.15,2013-03-03 10:25:00,
2013-03-03 02:30:00,53.9,40.8,30.04,West,266,2.0,2.0,61,0.00,,,0.00,Wunderground v.1.15,2013-03-03 10:30:00,
2013-03-03 02:35:00,54.2,41.0,30.03,West,266,0.0,2.0,61,0.00,,,0.00,Wunderground v.1.15,2013-03-03 10:35:00,
2013-03-03 02:45:00,54.5,42.2,30.04,West,266,0.0,2.0,63,0.00,,,0.00,Wunderground v.1.15,2013-03-03 10:45:00,
2013-03-03 02:55:00,54.4,41.6,30.03,West,266,0.0,2.0,62,0.00,,,0.00,Wunderground v.1.15,2013-03-03 10:55:00,
2013-03-03 03:00:00,54.2,40.6,30.03,West,266,0.0,2.0,60,0.00,,,0.00,Wunderground v.1.15,2013-03-03 11:00:00,
2013-03-03 03:05:00,54.0,41.3,30.04,West,266,0.0,2.0,62,0.00,,,0.00,Wunderground v.1.15,2013-03-03 11:05:00,
2013-03-03 03:10:00,53.7,41.4,30.04,West,266,0.0,2.0,63,0.00,,,0.00,Wunderground v.1.15,2013-03-03 11:10:00,
2013-03-03 03:15:00,53.6,41.7,30.03,West,266,0.0,2.0,64,0.00,,,0.00,Wunderground v.1.15,2013-03-03 11:15:00,
2013-03-03 03:25:00,53.3,41.0,30.03,West,266,0.0,2.0,63,0.00,,,0.00,Wunderground v.1.15,2013-03-03 11:25:00,
2013-03-03 03:30:00,53.2,41.7,30.03,West,266,0.0,2.0,65,0.00,,,0.00,Wunderground v.1.15,2013-03-03 11:30:00,
2013-03-03 03:35:00,53.2,41.7,30.03,West,266,0.0,2.0,65,0.00,,,0.00,Wunderground v.1.15,2013-03-03 11:35:00,
2013-03-03 03:40:00,53.1,41.6,30.03,West,266,0.0,2.0,65,0.00,,,0.00,Wunderground v.1.15,2013-03-03 11:40:00,
2013-03-03 03:45:00,53.1,42.4,30.03,West,266,0.0,2.0,67,0.00,,,0.00,Wunderground v.1.15,2013-03-03 11:45:00,
2013-03-03 03:50:00,53.1,42.0,30.03,WNW,292,0.0,2.0,66,0.00,,,0.00,Wunderground v.1.15,2013-03-03 11:50:00,
2013-03-03 03:55:00,53.1,41.2,30.03,NW,306,0.0,2.0,64,0.00,,,0.00,Wunderground v.1.15,2013-03-03 11:55:00,
2013-03-03 04:00:00,53.2,40.5,30.03,NW,306,0.0,2.0,62,0.00,,,0.00,Wunderground v.1.15,2013-03-03 12:00:00,
2013-03-03 04:05:00,53.6,40.9,30.03,NW,306,0.0,2.0,62,0.00,,,0.00,Wunderground v.1.15,2013-03-03 12:05:00,
2013-03-03 04:15:00,53.9,41.2,30.03,NW,309,0.0,2.0,62,0.00,,,0.00,Wunderground v.1.15,2013-03-03 12:15:00,
2013-03-03 04:20:00,54.1,40.1,30.04,NW,309,0.0,2.0,59,0.00,,,0.00,Wunderground v.1.15,2013-03-03 12:20:00,
2013-03-03 04:25:00,54.7,40.6,30.04,NW,309,0.0,2.0,59,0.00,,,0.00,Wunderground v.1.15,2013-03-03 12:25:00,
2013-03-03 04:30:00,54.9,39.5,30.04,NW,309,0.0,2.0,56,0.00,,,0.00,Wunderground v.1.15,2013-03-03 12:30:00,
2013-03-03 04:35:00,55.1,41.0,30.04,NW,309,0.0,2.0,59,0.00,,,0.00,Wunderground v.1.15,2013-03-03 12:35:00,
2013-03-03 04:45:00,55.3,41.6,30.04,NW,309,0.0,2.0,60,0.00,,,0.00,Wunderground v.1.15,2013-03-03 12:45:00,
2013-03-03 04:50:00,55.3,40.3,30.04,NW,309,0.0,2.0,57,0.00,,,0.00,Wunderground v.1.15,2013-03-03 12:50:00,
2013-03-03 04:55:00,55.3,40.3,30.06,NW,309,0.0,2.0,57,0.00,,,0.00,Wunderground v.1.15,2013-03-03 12:55:00,
2013-03-03 05:00:00,55.3,38.9,30.06,NW,309,1.0,1.0,54,0.00,,,0.00,Wunderground v.1.15,2013-03-03 13:00:00,
2013-03-03 05:05:00,55.4,39.5,30.06,NW,309,1.0,2.0,55,0.00,,,0.00,Wunderground v.1.15,2013-03-03 13:05:00,
2013-03-03 05:15:00,55.4,40.4,30.06,NW,309,0.0,2.0,57,0.00,,,0.00,Wunderground v.1.15,2013-03-03 13:15:00,
2013-03-03 05:20:00,55.4,40.4,30.06,NW,309,0.0,2.0,57,0.00,,,0.00,Wunderground v.1.15,2013-03-03 13:20:00,
2013-03-03 05:30:00,55.1,41.0,30.06,NW,309,0.0,2.0,59,0.00,,,0.00,Wunderground v.1.15,2013-03-03 13:30:00,
2013-03-03 05:35:00,54.9,41.7,30.06,NW,309,0.0,2.0,61,0.00,,,0.00,Wunderground v.1.15,2013-03-03 13:35:00,
2013-03-03 05:40:00,54.8,41.6,30.06,NW,309,0.0,2.0,61,0.00,,,0.00,Wunderground v.1.15,2013-03-03 13:40:00,
2013-03-03 05:45:00,54.6,41.0,30.06,NW,309,0.0,2.0,60,0.00,,,0.00,Wunderground v.1.15,2013-03-03 13:45:00,
2013-03-03 05:50:00,54.6,41.4,30.06,NW,309,0.0,2.0,61,0.00,,,0.00,Wunderground v.1.15,2013-03-03 13:50:00,
2013-03-03 05:55:00,54.6,41.8,30.06,NW,309,0.0,2.0,62,0.00,,,0.00,Wunderground v.1.15,2013-03-03 13:55:00,
2013-03-03 06:00:00,54.6,43.1,30.07,NW,309,0.0,2.0,65,0.00,,,0.00,Wunderground v.1.15,2013-03-03 14:00:00,
2013-03-03 06:05:00,54.7,43.2,30.07,NW,308,0.0,2.0,65,0.00,,,0.00,Wunderground v.1.15,2013-03-03 14:05:00,
2013-03-03 06:10:00,54.7,43.6,30.07,NW,308,0.0,2.0,66,0.00,,,0.00,Wunderground v.1.15,2013-03-03 14:10:00,
2013-03-03 06:20:00,54.6,43.9,30.07,NW,308,0.0,2.0,67,0.00,,,0.00,Wunderground v.1.15,2013-03-03 14:20:00,
2013-03-03 06:25:00,54.6,44.6,30.07,NW,308,0.0,2.0,69,0.00,,,0.00,Wunderground v.1.15,2013-03-03 14:25:00,
2013-03-03 06:35:00,54.4,44.8,30.07,NW,308,0.0,2.0,70,0.00,,,0.00,Wunderground v.1.15,2013-03-03 14:35:00,
2013-03-03 06:40:00,54.3,45.1,30.06,NW,308,0.0,2.0,71,0.00,,,0.00,Wunderground v.1.15,2013-03-03 14:40:00,
2013-03-03 06:45:00,54.2,45.7,30.06,NW,308,0.0,2.0,73,0.00,,,0.00,Wunderground v.1.15,2013-03-03 14:45:00,
2013-03-03 06:55:00,54.1,46.0,30.07,NW,309,0.0,2.0,74,0.00,,,0.00,Wunderground v.1.15,2013-03-03 14:55:00,
2013-03-03 07:00:00,54.0,46.3,30.06,NW,309,0.0,2.0,75,0.00,,,0.00,Wunderground v.1.15,2013-03-03 15:00:00,
2013-03-03 07:05:00,53.9,46.5,30.06,NW,308,0.0,2.0,76,0.00,,,0.00,Wunderground v.1.15,2013-03-03 15:05:00,
2013-03-03 07:10:00,53.9,46.5,30.06,NW,308,0.0,2.0,76,0.00,,,0.00,Wunderground v.1.15,2013-03-03 15:10:00,
2013-03-03 07:15:00,53.8,46.8,30.06,NW,308,0.0,2.0,77,0.00,,,0.00,Wunderground v.1.15,2013-03-03 15:15:00,
2013-03-03 07:25:00,53.9,46.2,30.06,NW,308,0.0,2.0,75,0.00,,,0.00,Wunderground v.1.15,2013-03-03 15:25:00,
2013-03-03 07:35:00,54.3,46.2,30.06,NW,309,0.0,2.0,74,0.00,,,0.00,Wunderground v.1.15,2013-03-03 15:35:00,
2013-03-03 07:40:00,54.5,47.4,30.07,NW,309,0.0,2.0,77,0.00,,,0.00,Wunderground v.1.15,2013-03-03 15:40:00,
2013-03-03 07:45:00,54.7,46.2,30.07,NW,309,0.0,2.0,73,0.00,,,0.00,Wunderground v.1.15,2013-03-03 15:45:00,
2013-03-03 07:50:00,54.9,46.4,30.07,NW,308,0.0,2.0,73,0.00,,,0.00,Wunderground v.1.15,2013-03-03 15:50:00,
2013-03-03 08:00:00,55.3,46.4,30.07,NW,309,0.0,2.0,72,0.00,,,0.00,Wunderground v.1.15,2013-03-03 16:00:00,
2013-03-03 08:05:00,55.5,46.6,30.07,NW,308,0.0,2.0,72,0.00,,,0.00,Wunderground v.1.15,2013-03-03 16:05:00,
2013-03-03 08:10:00,55.6,46.7,30.07,NW,308,0.0,2.0,72,0.00,,,0.00,Wunderground v.1.15,2013-03-03 16:10:00,
2013-03-03 08:15:00,55.8,46.9,30.07,NW,308,0.0,2.0,72,0.00,,,0.00,Wunderground v.1.15,2013-03-03 16:15:00,
2013-03-03 08:20:00,56.0,47.1,30.07,NW,308,0.0,2.0,72,0.00,,,0.00,Wunderground v.1.15,2013-03-03 16:20:00,
2013-03-03 08:30:00,56.2,46.9,30.07,NW,308,0.0,2.0,71,0.00,,,0.00,Wunderground v.1.15,2013-03-03 16:30:00,
2013-03-03 08:35:00,56.4,46.7,30.07,NW,309,0.0,2.0,70,0.00,,,0.00,Wunderground v.1.15,2013-03-03 16:35:00,
2013-03-03 08:40:00,56.6,46.9,30.07,NW,309,0.0,2.0,70,0.00,,,0.00,Wunderground v.1.15,2013-03-03 16:40:00,
2013-03-03 08:45:00,56.9,46.4,30.07,NW,309,1.0,2.0,68,0.00,,,0.00,Wunderground v.1.15,2013-03-03 16:45:00,
2013-03-03 08:50:00,57.1,46.6,30.07,NW,309,1.0,1.0,68,0.00,,,0.00,Wunderground v.1.15,2013-03-03 16:50:00,
2013-03-03 08:55:00,57.4,46.5,30.07,NW,309,0.0,2.0,67,0.00,,,0.00,Wunderground v.1.15,2013-03-03 16:55:00,
2013-03-03 09:00:00,57.8,47.3,30.07,NW,309,0.0,2.0,68,0.00,,,0.00,Wunderground v.1.15,2013-03-03 17:00:00,
2013-03-03 09:05:00,58.1,46.4,30.07,NW,308,0.0,2.0,65,0.00,,,0.00,Wunderground v.1.15,2013-03-03 17:05:00,
2013-03-03 09:10:00,58.4,46.7,30.07,NW,308,0.0,2.0,65,0.00,,,0.00,Wunderground v.1.15,2013-03-03 17:10:00,
2013-03-03 09:15:00,58.8,46.6,30.07,NW,309,0.0,2.0,64,0.00,,,0.00,Wunderground v.1.15,2013-03-03 17:15:00,
2013-03-03 09:20:00,59.1,46.9,30.07,NW,308,0.0,2.0,64,0.00,,,0.00,Wunderground v.1.15,2013-03-03 17:20:00,
2013-03-03 09:25:00,59.4,46.4,30.08,NW,308,0.0,2.0,62,0.00,,,0.00,Wunderground v.1.15,2013-03-03 17:25:00,
2013-03-03 09:30:00,59.5,46.0,30.08,NW,308,0.0,2.0,61,0.00,,,0.00,Wunderground v.1.15,2013-03-03 17:30:00,
2013-03-03 09:40:00,59.5,47.7,30.07,SSW,202,2.0,2.0,65,0.00,,,0.00,Wunderground v.1.15,2013-03-03 17:40:00,
2013-03-03 09:50:00,60.0,47.8,30.07,SSW,202,0.0,2.0,64,0.00,,,0.00,Wunderground v.1.15,2013-03-03 17:50:00,
2013-03-03 09:55:00,60.4,47.7,30.06,SSW,202,0.0,2.0,63,0.00,,,0.00,Wunderground v.1.15,2013-03-03 17:55:00,
2013-03-03 10:00:00,61.2,48.1,30.07,SSW,202,0.0,2.0,62,0.00,,,0.00,Wunderground v.1.15,2013-03-03 18:00:00,
2013-03-03 10:05:00,62.0,45.2,30.07,SSW,202,0.0,2.0,54,0.00,,,0.00,Wunderground v.1.15,2013-03-03 18:05:00,
2013-03-03 10:10:00,63.0,45.6,30.06,SSW,201,0.0,2.0,53,0.00,,,0.00,Wunderground v.1.15,2013-03-03 18:10:00,
2013-03-03 10:20:00,63.9,46.9,30.06,SSW,194,3.0,3.0,54,0.00,,,0.00,Wunderground v.1.15,2013-03-03 18:20:00,
2013-03-03 10:25:00,63.5,47.0,30.07,South,191,2.0,5.0,55,0.00,,,0.00,Wunderground v.1.15,2013-03-03 18:25:00,
2013-03-03 10:30:00,63.3,47.3,30.06,SSW,202,1.0,2.0,56,0.00,,,0.00,Wunderground v.1.15,2013-03-03 18:30:00,
2013-03-03 10:35:00,63.2,48.2,30.06,SSE,151,2.0,2.0,58,0.00,,,0.00,Wunderground v.1.15,2013-03-03 18:35:00,
2013-03-03 10:40:00,63.9,46.9,30.06,SSE,149,4.0,5.0,54,0.00,,,0.00,Wunderground v.1.15,2013-03-03 18:40:00,
2013-03-03 10:50:00,65.1,47.5,30.06,SE,145,4.0,4.0,53,0.00,,,0.00,Wunderground v.1.15,2013-03-03 18:50:00,
2013-03-03 11:00:00,65.6,47.0,30.06,South,171,4.0,4.0,51,0.00,,,0.00,Wunderground v.1.15,2013-03-03 19:00:00,
2013-03-03 11:05:00,65.5,46.4,30.06,South,190,4.0,7.0,50,0.00,,,0.00,Wunderground v.1.15,2013-03-03 19:05:00,
2013-03-03 11:10:00,65.5,49.9,30.05,South,174,3.0,3.0,57,0.00,,,0.00,Wunderground v.1.15,2013-03-03 19:10:00,
2013-03-03 11:15:00,65.9,51.2,30.05,South,187,4.0,4.0,59,0.00,,,0.00,Wunderground v.1.15,2013-03-03 19:15:00,
2013-03-03 11:20:00,66.1,50.4,30.05,SE,139,4.0,5.0,57,0.00,,,0.00,Wunderground v.1.15,2013-03-03 19:20:00,
2013-03-03 11:25:00,66.1,49.5,30.04,SSE,167,3.0,5.0,55,0.00,,,0.00,Wunderground v.1.15,2013-03-03 19:25:00,
2013-03-03 11:30:00,66.3,47.1,30.04,SSW,193,3.0,4.0,50,0.00,,,0.00,Wunderground v.1.15,2013-03-03 19:30:00,
2013-03-03 11:35:00,66.2,50.0,30.04,SSW,199,3.0,4.0,56,0.00,,,0.00,Wunderground v.1.15,2013-03-03 19:35:00,
2013-03-03 11:40:00,66.1,49.0,30.04,South,179,3.0,3.0,54,0.00,,,0.00,Wunderground v.1.15,2013-03-03 19:40:00,
2013-03-03 11:45:00,66.4,49.2,30.03,South,191,2.0,3.0,54,0.00,,,0.00,Wunderground v.1.15,2013-03-03 19:45:00,
2013-03-03 11:50:00,66.8,48.6,30.03,South,188,2.0,2.0,52,0.00,,,0.00,Wunderground v.1.15,2013-03-03 19:50:00,
2013-03-03 12:00:00,67.3,45.2,30.03,South,180,3.0,3.0,45,0.00,,,0.00,Wunderground v.1.15,2013-03-03 20:00:00,
2013-03-03 12:10:00,68.2,44.2,30.02,SSW,205,3.0,3.0,42,0.00,,,0.00,Wunderground v.1.15,2013-03-03 20:10:00,
2013-03-03 12:15:00,68.5,43.2,30.02,WSW,244,2.0,3.0,40,0.00,,,0.00,Wunderground v.1.15,2013-03-03 20:15:00,
2013-03-03 12:20:00,68.9,44.9,30.02,SSE,158,2.0,5.0,42,0.00,,,0.00,Wunderground v.1.15,2013-03-03 20:20:00,
2013-03-03 12:25:00,69.2,45.1,30.02,SE,143,3.0,5.0,42,0.00,,,0.00,Wunderground v.1.15,2013-03-03 20:25:00,
2013-03-03 12:30:00,69.4,44.7,30.02,SSW,205,4.0,4.0,41,0.00,,,0.00,Wunderground v.1.15,2013-03-03 20:30:00,
2013-03-03 12:35:00,69.3,47.0,30.02,West,273,4.0,4.0,45,0.00,,,0.00,Wunderground v.1.15,2013-03-03 20:35:00,
2013-03-03 12:40:00,68.9,45.5,30.02,SW,236,3.0,3.0,43,0.00,,,0.00,Wunderground v.1.15,2013-03-03 20:40:00,
2013-03-03 12:45:00,68.3,44.9,30.01,WSW,244,3.0,5.0,43,0.00,,,0.00,Wunderground v.1.15,2013-03-03 20:45:00,
2013-03-03 12:50:00,68.0,45.9,30.01,West,277,3.0,3.0,45,0.00,,,0.00,Wunderground v.1.15,2013-03-03 20:50:00,
2013-03-03 13:00:00,68.1,47.1,30.01,SSW,212,2.0,4.0,47,0.00,,,0.00,Wunderground v.1.15,2013-03-03 21:00:00,
2013-03-03 13:05:00,67.7,45.6,30.01,WNW,287,2.0,4.0,45,0.00,,,0.00,Wunderground v.1.15,2013-03-03 21:05:00,
2013-03-03 13:10:00,67.0,44.4,30.01,SSW,208,3.0,4.0,44,0.00,,,0.00,Wunderground v.1.15,2013-03-03 21:10:00,
2013-03-03 13:15:00,66.6,45.7,30.01,WSW,240,3.0,4.0,47,0.00,,,0.00,Wunderground v.1.15,2013-03-03 21:15:00,
2013-03-03 13:20:00,66.5,46.2,30.00,ESE,121,3.0,6.0,48,0.00,,,0.00,Wunderground v.1.15,2013-03-03 21:20:00,
2013-03-03 13:25:00,66.5,45.6,30.00,SSW,213,3.0,6.0,47,0.00,,,0.00,Wunderground v.1.15,2013-03-03 21:25:00,
2013-03-03 13:30:00,66.7,46.9,30.00,SSW,195,2.0,6.0,49,0.00,,,0.00,Wunderground v.1.15,2013-03-03 21:30:00,
2013-03-03 13:35:00,67.2,47.9,30.00,SSW,203,2.0,6.0,50,0.00,,,0.00,Wunderground v.1.15,2013-03-03 21:35:00,
2013-03-03 13:45:00,67.4,50.2,30.00,SSE,167,2.0,2.0,54,0.00,,,0.00,Wunderground v.1.15,2013-03-03 21:45:00,
2013-03-03 13:50:00,67.2,49.5,30.00,West,266,2.0,2.0,53,0.00,,,0.00,Wunderground v.1.15,2013-03-03 21:50:00,
2013-03-03 14:00:00,66.3,49.6,30.00,WNW,282,3.0,3.0,55,0.00,,,0.00,Wunderground v.1.15,2013-03-03 22:00:00,
2013-03-03 14:05:00,66.3,50.1,30.00,SW,214,2.0,3.0,56,0.00,,,0.00,Wunderground v.1.15,2013-03-03 22:05:00,
2013-03-03 14:10:00,66.3,51.1,30.00,NE,39,2.0,2.0,58,0.00,,,0.00,Wunderground v.1.15,2013-03-03 22:10:00,
2013-03-03 14:15:00,66.7,50.5,30.00,SW,234,2.0,6.0,56,0.00,,,0.00,Wunderground v.1.15,2013-03-03 22:15:00,
2013-03-03 14:20:00,66.5,50.8,29.99,NE,45,2.0,2.0,57,0.00,,,0.00,Wunderground v.1.15,2013-03-03 22:20:00,
2013-03-03 14:25:00,66.5,50.3,30.00,WNW,293,2.0,4.0,56,0.00,,,0.00,Wunderground v.1.15,2013-03-03 22:25:00,
2013-03-03 14:30:00,66.1,49.9,29.99,South,181,3.0,3.0,56,0.00,,,0.00,Wunderground v.1.15,2013-03-03 22:30:00,
2013-03-03 14:35:00,65.6,50.0,29.99,NNW,342,3.0,3.0,57,0.00,,,0.00,Wunderground v.1.15,2013-03-03 22:35:00,
2013-03-03 14:40:00,65.5,50.8,30.00,East,97,2.0,2.0,59,0.00,,,0.00,Wunderground v.1.15,2013-03-03 22:40:00,
2013-03-03 14:50:00,65.6,51.8,29.99,SSW,206,2.0,4.0,61,0.00,,,0.00,Wunderground v.1.15,2013-03-03 22:50:00,
2013-03-03 14:55:00,65.2,50.0,29.99,SSW,193,3.0,4.0,58,0.00,,,0.00,Wunderground v.1.15,2013-03-03 22:55:00,
2013-03-03 15:00:00,64.9,50.7,29.99,South,191,3.0,3.0,60,0.00,,,0.00,Wunderground v.1.15,2013-03-03 23:00:00,
2013-03-03 15:20:00,64.4,50.2,29.99,South,172,3.0,3.0,60,0.00,,,0.00,Wunderground v.1.15,2013-03-03 23:20:00,
2013-03-03 15:25:00,64.6,49.9,29.99,WNW,286,3.0,3.0,59,0.00,,,0.00,Wunderground v.1.15,2013-03-03 23:25:00,
2013-03-03 15:30:00,65.1,52.2,29.99,WSW,255,2.0,2.0,63,0.00,,,0.00,Wunderground v.1.15,2013-03-03 23:30:00,
2013-03-03 15:35:00,65.6,51.3,29.99,SSW,208,2.0,2.0,60,0.00,,,0.00,Wunderground v.1.15,2013-03-03 23:35:00,
2013-03-03 15:40:00,65.4,51.1,29.99,South,178,3.0,3.0,60,0.00,,,0.00,Wunderground v.1.15,2013-03-03 23:40:00,
2013-03-03 15:45:00,64.8,51.9,29.99,SSW,205,3.0,3.0,63,0.00,,,0.00,Wunderground v.1.15,2013-03-03 23:45:00,
2013-03-03 15:50:00,64.5,52.0,29.99,SE,141,2.0,2.0,64,0.00,,,0.00,Wunderground v.1.15,2013-03-03 23:50:00,
2013-03-03 16:00:00,64.7,51.4,29.99,SW,214,1.0,1.0,62,0.00,,,0.00,Wunderground v.1.15,2013-03-04 00:00:00,
2013-03-03 16:05:00,64.8,51.5,29.99,SSW,208,1.0,2.0,62,0.00,,,0.00,Wunderground v.1.15,2013-03-04 00:05:00,
2013-03-03 16:15:00,64.1,51.2,29.99,West,270,2.0,5.0,63,0.00,,,0.00,Wunderground v.1.15,2013-03-04 00:15:00,
2013-03-03 16:20:00,63.9,52.3,29.98,SSE,156,2.0,4.0,66,0.00,,,0.00,Wunderground v.1.15,2013-03-04 00:20:00,
2013-03-03 16:25:00,64.4,52.4,29.98,SSE,165,1.0,4.0,65,0.00,,,0.00,Wunderground v.1.15,2013-03-04 00:25:00,
2013-03-03 16:30:00,64.5,51.6,29.99,South,173,1.0,1.0,63,0.00,,,0.00,Wunderground v.1.15,2013-03-04 00:30:00,
2013-03-03 16:40:00,63.8,51.8,29.98,South,176,1.0,2.0,65,0.00,,,0.00,Wunderground v.1.15,2013-03-04 00:40:00,
2013-03-03 16:45:00,62.9,51.8,29.98,WNW,291,2.0,2.0,67,0.00,,,0.00,Wunderground v.1.15,2013-03-04 00:45:00,
2013-03-03 16:50:00,62.1,51.4,29.98,WSW,255,1.0,2.0,68,0.00,,,0.00,Wunderground v.1.15,2013-03-04 00:50:00,
2013-03-03 16:55:00,61.5,51.2,29.98,SW,222,1.0,2.0,69,0.00,,,0.00,Wunderground v.1.15,2013-03-04 00:55:00,
2013-03-03 17:00:00,60.8,51.3,29.98,WSW,244,1.0,1.0,71,0.00,,,0.00,Wunderground v.1.15,2013-03-04 01:00:00,
2013-03-03 17:10:00,59.9,51.2,29.99,SW,223,1.0,2.0,73,0.00,,,0.00,Wunderground v.1.15,2013-03-04 01:10:00,
2013-03-03 17:15:00,59.4,51.1,29.99,SW,218,1.0,2.0,74,0.00,,,0.00,Wunderground v.1.15,2013-03-04 01:15:00,
2013-03-03 17:25:00,58.7,51.2,29.99,South,185,1.0,2.0,76,0.00,,,0.00,Wunderground v.1.15,2013-03-04 01:25:00,
2013-03-03 17:35:00,57.9,50.7,29.99,South,185,0.0,2.0,77,0.00,,,0.00,Wunderground v.1.15,2013-03-04 01:35:00,
2013-03-03 17:50:00,57.0,50.5,29.99,West,271,1.0,1.0,79,0.00,,,0.00,Wunderground v.1.15,2013-03-04 01:50:00,
2013-03-03 17:55:00,56.5,50.4,29.99,West,271,1.0,2.0,80,0.00,,,0.00,Wunderground v.1.15,2013-03-04 01:55:00,
2013-03-03 18:05:00,55.8,50.1,29.99,NW,314,0.0,2.0,81,0.00,,,0.00,Wunderground v.1.15,2013-03-04 02:05:00,
2013-03-03 18:10:00,55.6,50.2,30.00,NW,314,0.0,2.0,82,0.00,,,0.00,Wunderground v.1.15,2013-03-04 02:10:00,
2013-03-03 18:15:00,55.3,49.9,29.99,NW,314,0.0,2.0,82,0.00,,,0.00,Wunderground v.1.15,2013-03-04 02:15:00,
2013-03-03 18:20:00,55.0,49.6,29.99,NW,314,0.0,2.0,82,0.00,,,0.00,Wunderground v.1.15,2013-03-04 02:20:00,
2013-03-03 18:30:00,54.6,48.9,29.99,NW,314,0.0,2.0,81,0.00,,,0.00,Wunderground v.1.15,2013-03-04 02:30:00,
2013-03-03 18:40:00,54.4,48.4,30.00,NW,314,0.0,2.0,80,0.00,,,0.00,Wunderground v.1.15,2013-03-04 02:40:00,
2013-03-03 18:45:00,54.2,47.8,30.00,NW,314,0.0,2.0,79,0.00,,,0.00,Wunderground v.1.15,2013-03-04 02:45:00,
2013-03-03 18:50:00,54.1,47.7,30.00,NW,314,0.0,2.0,79,0.00,,,0.00,Wunderground v.1.15,2013-03-04 02:50:00,
2013-03-03 18:55:00,53.9,47.5,30.00,NW,314,0.0,2.0,79,0.00,,,0.00,Wunderground v.1.15,2013-03-04 02:55:00,
2013-03-03 19:00:00,53.7,47.3,30.00,NW,314,0.0,2.0,79,0.00,,,0.00,Wunderground v.1.15,2013-03-04 03:00:00,
2013-03-03 19:10:00,53.3,47.0,30.01,NW,314,0.0,2.0,79,0.00,,,0.00,Wunderground v.1.15,2013-03-04 03:10:00,
2013-03-03 19:20:00,53.1,47.7,30.01,NW,314,0.0,2.0,82,0.00,,,0.00,Wunderground v.1.15,2013-03-04 03:20:00,
2013-03-03 19:25:00,53.0,47.7,30.01,NW,314,0.0,2.0,82,0.00,,,0.00,Wunderground v.1.15,2013-03-04 03:25:00,
2013-03-03 19:30:00,52.9,47.9,30.01,NW,314,0.0,2.0,83,0.00,,,0.00,Wunderground v.1.15,2013-03-04 03:30:00,
2013-03-03 19:35:00,53.0,48.3,30.01,NW,314,1.0,2.0,84,0.00,,,0.00,Wunderground v.1.15,2013-03-04 03:35:00,
2013-03-03 19:40:00,53.0,48.3,30.01,NW,314,1.0,2.0,84,0.00,,,0.00,Wunderground v.1.15,2013-03-04 03:40:00,
2013-03-03 19:45:00,52.9,48.2,30.01,NW,314,0.0,2.0,84,0.00,,,0.00,Wunderground v.1.15,2013-03-04 03:45:00,
2013-03-03 19:55:00,52.8,48.4,30.02,NW,314,0.0,2.0,85,0.00,,,0.00,Wunderground v.1.15,2013-03-04 03:55:00,
2013-03-03 20:05:00,52.8,48.4,30.02,NW,317,1.0,3.0,85,0.00,,,0.00,Wunderground v.1.15,2013-03-04 04:05:00,
2013-03-03 20:10:00,52.8,48.7,30.02,NW,317,1.0,1.0,86,0.00,,,0.00,Wunderground v.1.15,2013-03-04 04:10:00,
2013-03-03 20:15:00,52.8,48.7,30.01,NW,317,1.0,2.0,86,0.00,,,0.00,Wunderground v.1.15,2013-03-04 04:15:00,
2013-03-03 20:20:00,52.8,48.7,30.02,NW,317,1.0,2.0,86,0.00,,,0.00,Wunderground v.1.15,2013-03-04 04:20:00,
2013-03-03 20:25:00,52.8,48.7,30.02,NW,316,1.0,2.0,86,0.00,,,0.00,Wunderground v.1.15,2013-03-04 04:25:00,
2013-03-03 20:35:00,52.7,48.6,30.02,NW,316,1.0,2.0,86,0.00,,,0.00,Wunderground v.1.15,2013-03-04 04:35:00,
2013-03-03 20:40:00,52.6,48.5,30.02,NW,316,1.0,2.0,86,0.00,,,0.00,Wunderground v.1.15,2013-03-04 04:40:00,
2013-03-03 20:45:00,52.6,48.5,30.02,NW,316,0.0,2.0,86,0.00,,,0.00,Wunderground v.1.15,2013-03-04 04:45:00,
2013-03-03 20:50:00,52.6,48.5,30.02,NW,316,1.0,1.0,86,0.00,,,0.00,Wunderground v.1.15,2013-03-04 04:50:00,
2013-03-03 21:00:00,52.7,48.6,30.02,NW,316,0.0,2.0,86,0.00,,,0.00,Wunderground v.1.15,2013-03-04 05:00:00,
2013-03-03 21:05:00,52.7,48.6,30.02,NW,316,0.0,2.0,86,0.00,,,0.00,Wunderground v.1.15,2013-03-04 05:05:00,
2013-03-03 21:10:00,52.6,48.5,30.02,NW,316,0.0,2.0,86,0.00,,,0.00,Wunderground v.1.15,2013-03-04 05:10:00,
2013-03-03 21:15:00,52.6,48.5,30.02,NW,316,0.0,2.0,86,0.00,,,0.00,Wunderground v.1.15,2013-03-04 05:15:00,
2013-03-03 21:20:00,52.6,48.5,30.02,NW,316,0.0,2.0,86,0.00,,,0.00,Wunderground v.1.15,2013-03-04 05:20:00,
2013-03-03 21:25:00,52.6,48.5,30.02,NW,316,0.0,2.0,86,0.00,,,0.00,Wunderground v.1.15,2013-03-04 05:25:00,
2013-03-03 21:30:00,52.6,48.5,30.02,NW,316,0.0,2.0,86,0.00,,,0.00,Wunderground v.1.15,2013-03-04 05:30:00,
2013-03-03 21:35:00,52.4,48.3,30.02,NW,316,0.0,2.0,86,0.00,,,0.00,Wunderground v.1.15,2013-03-04 05:35:00,
2013-03-03 21:45:00,51.9,47.5,30.02,NW,316,0.0,2.0,85,0.00,,,0.00,Wunderground v.1.15,2013-03-04 05:45:00,
2013-03-03 21:55:00,51.4,46.4,30.02,NW,316,0.0,2.0,83,0.00,,,0.00,Wunderground v.1.15,2013-03-04 05:55:00,
2013-03-03 22:00:00,51.2,46.2,30.01,NW,316,0.0,2.0,83,0.00,,,0.00,Wunderground v.1.15,2013-03-04 06:00:00,
2013-03-03 22:05:00,50.8,45.5,30.01,NW,316,0.0,2.0,82,0.00,,,0.00,Wunderground v.1.15,2013-03-04 06:05:00,
2013-03-03 22:10:00,50.6,45.0,30.01,NW,316,0.0,2.0,81,0.00,,,0.00,Wunderground v.1.15,2013-03-04 06:10:00,
2013-03-03 22:20:00,49.6,45.3,30.02,NW,316,1.0,2.0,85,0.00,,,0.00,Wunderground v.1.15,2013-03-04 06:20:00,
2013-03-03 22:25:00,49.2,45.2,30.02,NW,316,1.0,2.0,86,0.00,,,0.00,Wunderground v.1.15,2013-03-04 06:25:00,
2013-03-03 22:30:00,49.0,45.0,30.02,NW,316,0.0,2.0,86,0.00,,,0.00,Wunderground v.1.15,2013-03-04 06:30:00,
2013-03-03 22:40:00,48.5,44.2,30.02,NW,316,0.0,2.0,85,0.00,,,0.00,Wunderground v.1.15,2013-03-04 06:40:00,
2013-03-03 22:45:00,48.2,43.9,30.01,NW,316,0.0,2.0,85,0.00,,,0.00,Wunderground v.1.15,2013-03-04 06:45:00,
2013-03-03 22:50:00,48.0,44.0,30.01,NW,316,0.0,2.0,86,0.00,,,0.00,Wunderground v.1.15,2013-03-04 06:50:00,
2013-03-03 22:55:00,47.8,43.8,30.01,NW,316,0.0,2.0,86,0.00,,,0.00,Wunderground v.1.15,2013-03-04 06:55:00,
2013-03-03 23:00:00,47.5,43.2,30.01,NW,316,0.0,2.0,85,0.00,,,0.00,Wunderground v.1.15,2013-03-04 07:00:00,
2013-03-03 23:05:00,47.4,43.4,30.01,NW,316,0.0,2.0,86,0.00,,,0.00,Wunderground v.1.15,2013-03-04 07:05:00,
2013-03-03 23:10:00,47.2,43.5,30.01,NW,316,0.0,2.0,87,0.00,,,0.00,Wunderground v.1.15,2013-03-04 07:10:00,
2013-03-03 23:15:00,47.1,43.4,30.01,NW,316,0.0,2.0,87,0.00,,,0.00,Wunderground v.1.15,2013-03-04 07:15:00,
2013-03-03 23:25:00,46.7,43.0,30.01,NW,316,0.0,2.0,87,0.00,,,0.00,Wunderground v.1.15,2013-03-04 07:25:00,
2013-03-03 23:35:00,46.4,42.7,30.01,NW,316,0.0,2.0,87,0.00,,,0.00,Wunderground v.1.15,2013-03-04 07:35:00,
2013-03-03 23:40:00,46.2,42.5,30.01,NW,316,0.0,2.0,87,0.00,,,0.00,Wunderground v.1.15,2013-03-04 07:40:00,
2013-03-03 23:45:00,46.1,42.7,30.01,NW,316,0.0,2.0,88,0.00,,,0.00,Wunderground v.1.15,2013-03-04 07:45:00,
2013-03-03 23:50:00,46.0,42.6,30.01,NW,316,0.0,2.0,88,0.00,,,0.00,Wunderground v.1.15,2013-03-04 07:50:00,
2013-03-03 23:55:00,45.9,42.5,30.01,NW,316,0.0,2.0,88,0.00,,,0.00,Wunderground v.1.15,2013-03-04 07:55:00,